Location: Newark
(34.1333°N, 7.9667°W)
Time: 07:38:45
(UTC+00:00)

A-11 Canister half - All Passes

Search period start: 15 June 2021 00:00
Search period end: 25 June 2021 00:00
Orbit: 1513 x 1686 km, 47.2° (Epoch: 14 June)

Date Brightness Start Highest point End Pass type
(mag) Time Alt. Az. Time Alt. Az. Time Alt. Az.
15 Jun - 02:53:57 10° SSE 02:58:27 14° ESE 03:02:54 10° E visible
15 Jun - 04:52:19 10° SSW 05:02:09 61° SE 05:11:41 10° ENE visible
15 Jun - 06:57:38 10° WSW 07:07:21 55° NNW 07:16:45 10° NE daylight
15 Jun - 09:05:19 10° WNW 09:14:09 37° N 09:22:42 10° ENE daylight
15 Jun - 11:11:37 10° NW 11:20:55 54° NNE 11:29:55 10° E daylight
15 Jun - 13:16:49 10° WNW 13:25:59 60° SW 13:34:58 10° SSE daylight
15 Jun - 15:26:04 10° W 15:29:25 12° WSW 15:32:46 10° SW daylight
16 Jun - 02:32:03 10° SE 02:35:36 12° ESE 02:39:07 10° E visible
16 Jun - 04:29:28 10° SSW 04:39:14 57° SE 04:48:43 10° ENE visible
16 Jun - 06:34:34 10° WSW 06:44:22 57° NNW 06:53:49 10° NE daylight
16 Jun - 08:42:14 10° WNW 08:51:06 37° N 08:59:41 10° ENE daylight
16 Jun - 10:48:39 10° NW 10:57:56 52° NNE 11:06:55 10° E daylight
16 Jun - 12:53:51 10° WNW 13:03:06 64° SW 13:12:09 10° SE daylight
16 Jun - 15:02:22 10° W 15:06:36 14° WSW 15:10:51 10° SSW daylight
17 Jun - 02:10:37 10° SE 02:12:46 11° ESE 02:14:52 10° ESE visible
17 Jun - 04:06:39 10° SSW 04:16:20 53° SE 04:25:46 10° ENE visible
17 Jun - 06:11:30 10° WSW 06:21:22 60° NNW 06:30:55 10° NE daylight
17 Jun - 08:19:07 10° WNW 08:28:02 37° N 08:36:41 10° ENE daylight
17 Jun - 10:25:40 10° NW 10:34:56 50° NNE 10:43:54 10° E daylight
17 Jun - 12:30:54 10° WNW 12:40:13 68° SW 12:49:20 10° SE daylight
17 Jun - 14:38:51 10° W 14:43:48 16° WSW 14:48:43 10° SSW daylight
18 Jun - 03:43:50 10° SSW 03:53:26 50° SE 04:02:47 10° ENE visible
18 Jun - 05:48:26 10° WSW 05:58:22 63° NNW 06:07:59 10° NE daylight
18 Jun - 07:56:01 10° WNW 08:04:59 38° N 08:13:40 10° ENE daylight
18 Jun - 10:02:41 10° NW 10:11:56 48° NNE 10:20:53 10° E daylight
18 Jun - 12:07:55 10° WNW 12:17:20 72° SW 12:26:30 10° SE daylight
18 Jun - 14:15:27 10° W 14:20:58 17° SW 14:26:29 10° SSW daylight
19 Jun - 03:21:02 10° SSW 03:30:31 47° SE 03:39:47 10° ENE visible
19 Jun - 05:25:23 10° WSW 05:35:22 65° NNW 05:45:03 10° NE daylight
19 Jun - 07:32:54 10° WNW 07:41:56 38° N 07:50:40 10° ENE daylight
19 Jun - 09:39:42 10° NW 09:48:56 47° NNE 09:57:51 10° E daylight
19 Jun - 11:44:57 10° NW 11:54:26 77° SW 12:03:39 10° SE daylight
19 Jun - 13:52:08 10° W 13:58:10 19° SW 14:04:09 10° SSW daylight
20 Jun - 02:58:16 10° SSW 03:07:37 44° SE 03:16:46 10° ENE visible
20 Jun - 05:02:20 10° WSW 05:12:24 68° NNW 05:22:09 10° NE daylight
20 Jun - 07:09:47 10° WNW 07:18:52 39° N 07:27:40 10° ENE daylight
20 Jun - 09:16:43 10° NW 09:25:55 45° NNE 09:34:49 10° E daylight
20 Jun - 11:22:00 10° NW 11:31:32 81° SW 11:40:48 10° SE daylight
20 Jun - 13:28:52 10° W 13:35:20 21° SW 13:41:46 10° S daylight
21 Jun - 02:35:31 10° SSW 02:44:44 41° SE 02:53:45 10° ENE visible
21 Jun - 04:39:18 10° WSW 04:49:25 72° NNW 04:59:13 10° NE visible
21 Jun - 06:46:40 10° WNW 06:55:49 39° N 07:04:41 10° ENE daylight
21 Jun - 08:53:41 10° NW 09:02:54 44° NNE 09:11:46 10° E daylight
21 Jun - 10:59:02 10° NW 11:08:38 85° SW 11:17:55 10° SE daylight
21 Jun - 13:05:39 10° WNW 13:12:31 23° SW 13:19:19 10° S daylight
22 Jun - 02:12:47 10° SSW 02:21:50 38° SE 02:30:43 10° ENE visible
22 Jun - 04:16:18 10° WSW 04:26:26 75° NNW 04:36:17 10° NE visible
22 Jun - 06:23:32 10° WNW 06:32:46 40° N 06:41:42 10° ENE daylight
22 Jun - 08:30:41 10° NW 08:39:52 43° NNE 08:48:44 10° E daylight
22 Jun - 10:36:05 10° NW 10:45:43 90° SSW 10:55:02 10° SE daylight
22 Jun - 12:42:28 10° WNW 12:49:41 26° SW 12:56:49 10° S daylight
23 Jun - 01:50:05 10° S 01:58:56 35° SE 02:07:39 10° ENE visible
23 Jun - 03:53:17 10° WSW 04:03:27 78° NW 04:13:22 10° NE visible
23 Jun - 06:00:25 10° W 06:09:43 41° NNW 06:18:42 10° ENE daylight
23 Jun - 08:07:39 10° NW 08:16:50 42° NNE 08:25:42 10° E daylight
23 Jun - 10:13:07 10° NW 10:22:48 86° NE 10:32:08 10° SE daylight
23 Jun - 12:19:19 10° WNW 12:26:52 28° SW 12:34:16 10° S daylight
24 Jun - 01:27:25 10° S 01:36:04 33° SE 01:44:34 10° ENE visible
24 Jun - 03:30:17 10° WSW 03:40:29 82° NW 03:50:26 10° NE visible
24 Jun - 05:37:18 10° W 05:46:40 42° NNW 05:55:44 10° NE daylight
24 Jun - 07:44:38 10° NW 07:53:48 41° NNE 08:02:39 10° E daylight
24 Jun - 09:50:09 10° NW 09:59:52 82° NE 10:09:13 10° ESE daylight
24 Jun - 11:56:12 10° WNW 12:04:01 30° SW 12:11:42 10° S daylight
